Regional Weather Roundup
Issued by NWS Kansas City/Pleasant Hill, MO

Home | Current Version | Previous Version | Graphics & Text | Print | Product List | Glossary Off
Versions: 1 2 3 4 5 6 7 8 9 10 11 12 13 14 15 16 17 18 19 20 21 22 23 24 25 26 27 28 29 30 31 32 33 34 35 36 37 38 39 40 41 42 43 44 45 46 47 48 49 50

257
ASUS43 KEAX 061410
RWREAX

WEATHER ROUNDUP FOR EASTERN KANSAS AND NORTHWEST MISSOURI
NATIONAL WEATHER SERVICE KANSAS CITY/PLEASANT HILL MO
800 AM CST SAT FEB 06 2016

KSZ040-057-103>105-MOZ028-029-037-043-061500-
...KANSAS CITY METROPOLITAN AREA...

CITY           SKY/WX    TMP DP  RH WIND       PRES   REMARKS
K.C. INTL      CLEAR     27  24  89 NW6       30.29R WCI  20
K.C. DOWNTOWN  CLEAR     29  25  85 CALM      30.31R
LEES SUMMIT    CLEAR     28  23  81 NW6       30.30R WCI  22
OLATHE - IXD   CLEAR     26  24  92 W3        30.31R
OLATHE - OJC   CLEAR     28  22  78 NW5       30.30R WCI  23
LAWRENCE       CLEAR     25  22  88 NW7       30.31R WCI  17

$$

MOZ001>008-011>017-020>025-030>033-038>040-044>046-053-054-061500-
...NORTHERN AND CENTRAL MISSOURI...

CITY           SKY/WX    TMP DP  RH WIND       PRES   REMARKS
ST. JOSEPH     CLEAR     23  21  92 CALM      30.30S FOG
MOSBY          SUNNY     25  23  93 CALM      30.30R
WARRENSBURG    CLEAR     30  25  80 SW3       30.30R
WHITEMAN AFB   CLEAR     30  24  77 SW3       30.28R
CLINTON          N/A     34  27  75 SW6       30.30S WCI  29
SEDALIA        CLEAR     35  23  61 SW8       30.30R WCI  29
WARSAW         NOT AVBL
CHILLICOTHE      N/A     26  23  88 CALM      30.30R
KIRKSVILLE     CLEAR     26  19  74 W5        30.27R WCI  20

$$

MOZ041-047>049-056>058-063>065-088>090-097-061500-
...EASTERN AND SOUTHERN MISSOURI...

CITY           SKY/WX    TMP DP  RH WIND       PRES   REMARKS
ST. LOUIS INTL PTCLDY    31  23  72 SE3       30.32R
SPIRIT OF STL  CLEAR     26  23  88 CALM      30.31R
COLUMBIA       CLEAR     31  19  61 CALM      30.28R
JEFFERSON CITY CLEAR     26  21  81 CALM      30.31R
ROLLA          CLEAR     34  19  54 S10       30.27R WCI  26
OSAGE BEACH    CLEAR     28  18  64 SE6       30.30R WCI  22
SPRINGFIELD    CLEAR     29  19  66 S5        30.30R WCI  24
BRANSON        CLEAR     32  16  51 CALM      30.31F
JOPLIN         CLEAR     34  20  56 S3        30.32R
WEST PLAINS    CLOUDY    36  17  46 SW6       30.33R WCI  31

$$

IAZ060-094-KSZ022-034>040-054-083-096-NEZ052-066-093-061500-
...KANSAS...SOUTHEAST NEBRASKA AND IOWA...

CITY           SKY/WX    TMP DP  RH WIND       PRES   REMARKS
TOPEKA         CLEAR     28  24  85 CALM      30.31S
MANHATTAN      PTCLDY    22  20  92 CALM      30.31R
EMPORIA        CLEAR     25  23  92 W3        30.30R
CHANUTE        CLEAR     28  23  81 NW6       30.33R WCI  22
WICHITA        CLEAR     25  21  85 CALM      30.32S
OMAHA          FOG       21  21 100 S5        30.25S VSB 1/2 WCI  15
LINCOLN        CLOUDY    17  15  92 SW6       30.28R FOG     WCI   9
FALLS CITY     PTCLDY    26  24  92 CALM      30.28R FOG
LAMONI         CLEAR     22  20  92 SW5       30.24F WCI  16
DES MOINES     CLOUDY    29  26  89 W6        30.24S FOG     WCI  23

$$





USA.gov is the U.S. government's official web portal to all federal, state and local government web resources and services.